Regional Weather Roundup
Issued by NWS

Home | Current Version | Previous Version | Text Only | Print | Product List | Glossary Off
Versions: 1 2 3 4 5 6 7 8 9 10 11 12 13 14 15 16 17 18 19 20 21 22 23 24 25 26 27 28 29 30 31 32 33 34 35 36 37 38 39 40 41 42 43 44 45 46 47 48 49 50

000
ASUS43 KLOT 231510
RWRIL

ILLINOIS REGIONAL WEATHER ROUNDUP
NATIONAL WEATHER SERVICE CHICAGO/ROMEOVILLE IL
900 AM CST SUN NOV 23 2014

NOTE: "FAIR" INDICATES FEW OR NO CLOUDS BELOW 12,000 FEET WITH NO
SIGNIFICANT WEATHER AND/OR OBSTRUCTIONS TO VISIBILITY.

* THESE STATIONS ARE NOT UNDER NWS QUALITY CONTROL. THEY ALSO MAY NOT
  REPORT WEATHER SUCH AS PRECIPITATION OR FOG.

ILZ001-002-007-009-015-016-024-231600-
NORTHWEST ILLINOIS

CITY           SKY/WX    TMP DP  RH WIND       PRES   REMARKS
MOLINE         RAIN      51  48  89 S13       29.62F FOG
STERLING*      CLOUDY    48  46  93 S6        29.67S
SAVANNA*       HVY RAIN  49  46  92 S10       29.65S
$$

ILZ003-004-008-010-011-017-018-231600-
NORTH CENTRAL ILLINOIS

CITY           SKY/WX    TMP DP  RH WIND       PRES   REMARKS
ROCKFORD       LGT RAIN  47  43  86 S12       29.70F FOG
FREEPORT*      RAIN      47  45  94 S16G22    29.67F
ROCHELLE*      RAIN      46  44  95 S10       29.70S
DE KALB*         N/A     44  42  93 SE13      29.71F
PERU*          DRIZZLE   50  46  86 S10       29.71F
$$

ILZ005-006-012>014-019>023-231600-
NORTHEAST ILLINOIS

CITY           SKY/WX    TMP DP  RH WIND       PRES   REMARKS
CHICAGO-OHARE  CLOUDY    49  43  80 S14       29.73F
CHICAGO-MIDWAY CLOUDY    52  44  74 S13       29.75F
AURORA         LGT RAIN  48  42  80 SE10      29.73F
LANSING*       CLOUDY    51  45  80 S14       29.77S
JOLIET*        CLOUDY    50  43  76 S12G17    29.75S
WAUKEGAN       CLOUDY    49  44  83 S16       29.71F
DUPAGE AIRPORT LGT RAIN  49  44  83 S13       29.73S
KANKAKEE*      CLOUDY    50  44  81 S15G24    29.77F
WHEELING       CLOUDY    49  44  83 S9        29.75F
MORRIS*        CLOUDY    49  45  84 S13       29.73S
ROMEOVILLE*    CLOUDY    49  43  79 S12       29.75S
NORTHERLY ISL    N/A     51  43  74 S14         N/A
$$

LMZ740>746-231600-
SOUTHERN LAKE MICHIGAN

STATION/POSITION SKY/WX   TEMP    WIND        PRES    VSBY  WAVE
                          AIR SEA DIR/SP/G                  HT/PER
                          (F)     (DEG/KT/KT) (MB)    (MI)  (FT/S)
SOUTHERN BUOY              45 43  170/ 16/ 17 1007.6F         3/ 5
WAUKEGAN HARBOR            46     200/ 14/ 16   N/A
HARRISON CRIB              50     180/ 21/ 23   N/A
BURNHAM HARBOR             51     180/ 16       N/A
CALUMET HARBOR             51     180/ 10/ 18 1006.6F
MICHIGAN CITY              50     150/ 16/ 22   N/A
$$

ILZ025>027-034>036-040-047-049-050-058-095>099-231600-
WEST-CENTRAL ILLINOIS

CITY           SKY/WX    TMP DP  RH WIND       PRES   REMARKS
QUINCY         LGT RAIN  52  48  86 S10       29.61F
GALESBURG*     DRIZZLE   48  46  95 SE7       29.64F
MACOMB*        CLOUDY    49  47  93 S8        29.65F
JACKSONVILLE*  CLOUDY    55  49  80 S14       29.66F
PITTSFIELD*    CLOUDY    55  49  83 SE13      29.64F
$$

ILZ028>032-037-038-041>044-048-051>054-059>061-231600-
CENTRAL ILLINOIS

CITY           SKY/WX    TMP DP  RH WIND       PRES   REMARKS
PONTIAC        CLOUDY    49  45  85 S18       29.73F
BLOOMINGTON    CLOUDY    47  45  93 S15       29.74F
DECATUR        CLOUDY    51  45  79 S15       29.75F
PEORIA         CLOUDY    52  45  77 S13       29.69F
LACON*         CLOUDY    51  44  79 S15       29.69F
LINCOLN*       CLOUDY    51  46  83 S13       29.71F
SPRINGFIELD    CLOUDY    53  46  77 S13G21    29.70F
TAYLORVILLE    CLOUDY    50  45  81 SE10      29.72F
$$

ILZ033-039-045-046-055>057-062-063-231600-
EAST-CENTRAL ILLINOIS

CITY           SKY/WX    TMP DP  RH WIND       PRES   REMARKS
CHAMPAIGN      CLOUDY    50  46  86 S14       29.77F
DANVILLE*      CLOUDY    51  45  81 S10       29.76F
RANTOUL*       CLOUDY    49  45  87 SE9       29.76F
MATTOON        CLOUDY    51  44  77 S15       29.76F
PARIS*         CLOUDY    52  47  82 SE15      29.80F
$$

ILZ079-100>102-231600-
SOUTHWEST ILLINOIS

CITY           SKY/WX    TMP DP  RH WIND       PRES   REMARKS
BELLEVILLE     CLOUDY    54  52  94 SE9       29.69F
CAHOKIA*       CLOUDY    54  51  90 SE13      29.68F
SPARTA*        CLOUDY    54  49  85 SE8       29.72F
$$

ILZ064>066-069>071-074>076-080>082-084>086-088>090-092>094-231600-
SOUTH-CENTRAL ILLINOIS

CITY           SKY/WX    TMP DP  RH WIND       PRES   REMARKS
CARBONDALE     CLOUDY    57  48  72 SE12      29.73F
CAIRO*         CLOUDY    59  51  76 SE12      29.73F
EFFINGHAM*     CLOUDY    53  43  69 SE10      29.77F
MARION         CLOUDY    57  48  72 S12       29.74F
MT. VERNON     CLOUDY    54  45  71 SE8       29.77F
CENTRALIA*     CLOUDY    54  46  75 SE12      29.73F
SALEM*           N/A     56  47  73 SE10      29.75F
METROPOLIS*    CLOUDY    56  51  81 SE7       29.75F
$$

ILZ067-068-072-073-078-083-087-091-231600-
SOUTHEAST ILLINOIS

CITY           SKY/WX    TMP DP  RH WIND       PRES   REMARKS
LAWRENCEVILLE  LGT RAIN  52  47  83 S14       29.83S
FLORA*         CLOUDY    53  43  67 SE13      29.79F
FAIRFIELD*     CLOUDY    54  42  66 SE10G18   29.78F
HARRISBURG*    CLOUDY    54  46  74 E8        29.78F
ROBINSON*      CLOUDY    56  43  61 S14       29.82F
CARMI*         CLOUDY    55  46  71 SE12      29.79F
$$

ABBREVIATIONS USED IN REMARKS
   TC - TEMPERATURE IN CELSIUS
  WCI - WIND CHILL INDEX
   HX - HEAT INDEX
  VSB - VISIBILITY
$$




USA.gov is the U.S. government's official web portal to all federal, state and local government web resources and services.